C/2005 H1 (LINEAR)

Epoch 2004 Nov. 11.0 TT = JDT 2453320.5  

T 2004 Oct. 28.37655 TT                                 Nakano

q   4.7682519            (2000.0)            P               Q

z  +0.0216131      Peri.   95.19241     -0.16812369     -0.30350662

 +/-0.0000139      Node    71.48962     -0.42772588     -0.83473314

e   0.8969433      Incl.   81.51200     +0.88813569     -0.45946090

P 315 years

From 162 observations 2005 Apr. 30-Sept. 25, mean residual 0".68.

Residuals in seconds of arc 

2005/                     050507 204  1.3-  0.6+    050604 360  0.1+  0.1+  

050430 704  0.9+  1.1+    050507 204  0.7-  0.3-    050604 360  0.1-  0.4-  

050430 704  0.1+  0.0     050508 232  0.4-  0.8+    050604 360  0.1+  0.0   

050430 704  0.7+  1.4-    050508 232  0.2-  1.9+    050607 170  0.9+  0.6+  

050430 118  0.2-  0.3+    050508 232 (0.1+  2.6+)   050607 170  0.8+  0.7+  

050501 118  0.3-  0.6+    050508 673  0.6-  0.2-    050607 170  0.9+  0.8+  

050501 118  0.7-  0.2+    050508 673  0.7+  0.2-    050607 170  1.0+  0.7+  

050502 H36  0.1+  1.0-    050508 673  0.9+  0.0     050607 170  0.9+  0.6+  

050502 H36  0.7+  1.0-    050508 673  0.3+  0.2+    050607 170  0.8+  0.5+  

050502 785 (0.9+  2.7+)   050512 561  0.4+  1.2-    050609 224  0.6-  0.3-  

050502 785  1.7+  2.0+    050512 561 (2.0-  2.5-)   050609 224  1.4-  0.8-  

050502 785 (2.1+  0.4+)   050512 561  1.8+  0.1+    050609 224  1.6-  1.0-  

050502 785  1.4-  1.5-    050512 372  0.6-  0.6-    050609 224  1.3-  0.8-  

050502 673  0.8+  0.0     050513 673  0.8+  0.3-    050610 703  0.9-  0.8-  

050502 673  0.6+  0.1+    050513 673  0.4+  0.3-    050610 703  0.2+  0.5+  

050502 673  0.7+  0.1+    050513 673  0.8+  0.2-    050610 703  0.2+  1.0+  

050502 673  0.7+  0.1+    050513 673  0.2+  0.5-    050610 703 (1.9-  2.6+) 

050502 F65  0.2+  0.0     050514 213  0.7-  0.5-    050612 213  0.0   0.6-  

050502 F65  0.2+  0.2+    050514 213  0.9-  0.4-    050612 213  0.3+  1.2-  

050502 F65  0.5+  0.1+    050514 213  1.1-  0.3-    050618 941  0.9-  0.3-  

050502 F65  0.6+  0.2+    050515 360  0.5-  0.1-    050618 941  0.7-  0.5-  

050502 A50  0.1-  0.7+    050515 372  1.3-  0.8+    050618 941  0.5-  0.6-  

050502 A50  0.0   0.7+    050515 360  0.0   0.1+    050618 941  0.4-  0.5-  

050502 A50  0.8-  0.7+    050515 360  0.0   0.5-    050624 941  0.3+  0.1-  

050502 J95  1.2-  0.1+    050516 372  0.6+  1.4+    050624 941  0.2+  0.2-  

050502 J95  1.3-  0.7-    050516 372  0.7-  1.2+    050624 941  0.2+  0.4-  

050503 649  0.5-  0.2+    050519 224  0.4+  0.4+    050624 941  0.2+  0.4-  

050503 649  0.4-  1.0+    050519 224  0.1-  0.1+    050630 673  0.1+  0.3-  

050503 649  0.6-  0.2+    050519 224  0.0   1.0-    050630 673  0.2+  0.2-  

050503 785  1.9+  1.3-    050519 557  0.6-  0.3-    050630 673  0.2+  0.0   

050503 785 (3.7-  3.4-)   050519 557  1.3-  0.0     050630 673  0.2+  0.2-  

050503 734  1.2-  0.1-    050519 557  1.1-  1.0-    050701 703  1.0+  1.7+  

050503 734  0.5-  0.0     050519 557  0.3-  1.1-    050701 703  0.8+  0.5+  

050503 673  0.6+  0.5-    050519 557  0.1+  0.2-    050701 703  0.1+  0.5+  

050503 673  0.5+  0.4-    050519 557  0.5-  0.2+    050701 703 (1.1+  2.3+) 

050503 673  0.4+  0.5-    050519 557  1.0-  0.0     050706 699  0.1-  1.8-  

050503 673  0.2+  0.4-    050519 557  0.5-  1.6-    050706 699  0.5-  0.4+  

050503 F65  0.6+  0.0     050520 213  0.0   0.0     050706 699  0.5-  0.9-  

050503 F65  0.5+  0.3-    050520 213  0.1-  0.1+    050706 699  0.0   0.2+  

050503 F65  0.6+  0.0     050520 213  0.2+  0.0     050709 673  0.4-  0.1+  

050503 F65  0.5+  0.3+    050524 118  0.5+  0.9+    050709 673  0.2-  0.3-  

050504 213  0.8-  1.2-    050525 118  1.2-  0.6+    050709 673  0.2+  0.8-  

050504 213  0.7-  0.9-    050525 118  0.2+  0.0     050712 224  0.1-  1.0+  

050504 213  0.8-  0.8-    050526 118  0.0   1.1-    050712 224  0.2+  0.1-  

050504 360  0.1+  0.2+    050526 118  0.3+  0.0     050712 224  0.2-  1.2+  

050504 360  0.1+  0.1+    050526 118  0.2-  0.4+    050714 104 (2.6+  0.6+) 

050504 360  0.1+  0.0     050528 213  0.6+  0.4+    050714 104  0.2-  0.3-  

050505 213  0.1+  0.1-    050528 213  0.3+  0.2+    050714 104  0.3-  0.1+  

050505 213  0.1-  0.1-    050528 213  0.1+  0.0     050714 104  0.3-  1.6+  

050505 213  0.0   0.0     050528 104 (1.2+  3.1-)   050715 213  1.3+  1.2+  

050505 213  0.1-  0.0     050528 104 (1.1+  2.3-)   050715 213  0.8+  0.4+  

050506 561  0.8+  0.0     050528 104 (2.8-  0.9-)   050715 213  0.6+  0.3+  

050506 561  0.5+  1.1+    050528 240  1.4+  1.3+    050724 118  1.2-  0.2-  

050506 561  0.0   0.2-    050528 240  0.0   0.4+    050724 118  1.1-  0.0   

050506 213  0.1+  0.5+    050528 240  0.5-  0.4+    050730 A32  0.3-  0.4-  

050506 213  0.2-  0.9+    050529 673  0.8+  0.0     050829 215 (3.3-  0.1+) 

050506 213  0.2-  0.8+    050529 673  0.9+  0.3-    050925 215  0.6+  0.5-  

050507 372  1.4-  0.6+    050529 673  0.4+  0.7-                            

050507 372  0.5+  1.3+    050529 673  0.6+  1.3-                            



NAKANO

         **** Don't distribute anyone except personal use only ****

                (C) Copyright 2005 OAA/ComputingSection

write mail from CFAD0::NAKANO on 2005-11-03 23:39:18(JST).

 





    C/2005 H1 (LINEAR)

Epoch 2004 Nov. 11.0 TT = JDT 2453320.5  

T 2004 Oct. 28.39556 TT                                 Nakano

q   4.7683839            (2000.0)            P               Q

z  +0.0215901      Peri.   95.19508     -0.16812127     -0.30352910

 +/-0.0000206      Node    71.48789     -0.42776678     -0.83470413

e   0.8970501      Incl.   81.51309     +0.88811645     -0.45949875

P 315 years

From 160 observations 2005 Apr. 30-July 30, mean residual 0".67.



NAKANO

         **** Don't distribute anyone except personal use only ****

                (C) Copyright 2005 OAA/ComputingSection

write mail from CFAD0::NAKANO on 2005-08-10 06:05:41(JST).

 

    C/2005 H1 (LINEAR)                                                    

T 2004 Oct. 28.44047 TT                                 Nakano

q   4.7681962            (2000.0)            P               Q

z  +0.0216476      Peri.   95.20029     -0.16819286     -0.30340664

 +/-0.0000432      Node    71.49409     -0.42784153     -0.83469703

e   0.8967799      Incl.   81.51013     +0.88806688     -0.45959251

P 314 years

From 135 observations 2005 Apr. 30-June 24.



NAKANO

         **** Don't distribute anyone except personal use only ****

                (C) Copyright 2005 OAA/ComputingSection

write mail from CFAD0::NAKANO on 2005-07-03 02:21:28(JST).



    C/2005 H1 (LINEAR)                                                    

T 2004 Oct. 26.58854 TT                                 Nakano

q   4.7631356            (2000.0)            P               Q

z  +0.0216843      Peri.   94.94124     -0.16697887     -0.30386782

 +/-0.0001266      Node    71.51109     -0.42404582     -0.83671110

e   0.8967147      Incl.   81.49971     +0.89011415     -0.45560825

From 109 observations 2005 Apr. 30-May 29.



NAKANO

         **** Don't distribute anyone except personal use only ****

                (C) Copyright 2005 OAA/ComputingSection

write mail from CFAD0::NAKANO on 2005-06-05 05:59:11(JST).

 



◎C/2005 H1の軌道と予報位置です



  久万の中村彰正氏による5月15日の観測では,彗星のCCD全光度は19.2等

でした.彗星は,周期が300年ほどの新長期彗星でした.



    C/2005 H1 (LINEAR)                                                    

T 2004 Oct. 24.63218 TT                                 Nakano

q   4.7526139            (2000.0)            P               Q

z  +0.0224329      Peri.   94.64462     -0.16648821     -0.30277861

 +/-0.0004763      Node    71.62314     -0.41958461     -0.83947446

e   0.8933853      Incl.   81.42965     +0.89231745     -0.45122914

P 298 years

From 76 observations 2005 Apr. 30-May 15.

 

Date/        TT  R.A.(2000) Decl.     Delta   r     Daily motion  Mag.  Moon Age

              h    h  m       。  ,                      ,  / PA 。  m1      。

2005 May  15 14  16 57.76  +47 43.3   4.542  4.986    12.8 / 256  19.0   90  .43

          16 14  16 56.53  +47 40.1   4.541  4.988    12.9 / 255  19.0   86  .52

          17 14  16 55.30  +47 36.6   4.542  4.990    13.0 / 254  19.0   82  .62

          18 14  16 54.07  +47 32.9   4.542  4.992    13.1 / 253  19.0   79  .71

          19 14  16 52.83  +47 28.9   4.542  4.995    13.2 / 252  19.0   76  .80

          20 14  16 51.60  +47 24.8   4.543  4.997    13.3 / 251  19.0   73  .87

          21 14  16 50.36  +47 20.3   4.543  4.999    13.5 / 250  19.0   72  .94

          22 14  16 49.11  +47 15.7   4.544  5.001    13.6 / 249  19.0   71  .98

          23 14  16 47.87  +47 10.7   4.545  5.004    13.7 / 248  19.0   72 1.00

          24 14  16 46.63  +47 05.6   4.546  5.006    13.8 / 247  19.0   73  .99

          25 14  16 45.39  +47 00.2   4.548  5.008    13.9 / 246  19.0   77  .96

          26 14  16 44.16  +46 54.5   4.549  5.011    14.0 / 245  19.0   81  .90

          27 14  16 42.92  +46 48.6   4.551  5.013    14.1 / 244  19.0   85  .81

          28 14  16 41.69  +46 42.5   4.553  5.015    14.2 / 243  19.0   90  .71

          29 14  16 40.46  +46 36.1   4.555  5.018    14.2 / 242  19.0   95  .60

          30 14  16 39.24  +46 29.5   4.557  5.020    14.3 / 241  19.0  100  .49

          31 14  16 38.03  +46 22.6   4.559  5.022    14.4 / 241  19.1  104  .38

     June  1 14  16 36.81  +46 15.5   4.562  5.025    14.5 / 240  19.1  108  .28

           2 14  16 35.61  +46 08.2   4.564  5.027    14.6 / 239  19.1  110  .19

           3 14  16 34.41  +46 00.6   4.567  5.030    14.7 / 238  19.1  111  .11

           4 14  16 33.22  +45 52.8   4.570  5.032    14.7 / 237  19.1  111  .06

           5 14  16 32.04  +45 44.7   4.574  5.034    14.8 / 236  19.1  110  .02

           6 14  16 30.87  +45 36.5   4.577  5.037    14.9 / 235  19.1  108  .00

